• In Österreich
  • Länderverzeichnis
  • Für 7 Tage
  • Wassertemperatur
  • Satellitenkarten
  • Wetterkarte
  • News
  • Widgets
  • user-avatar
    Anmelden

    Stündliche Wetter Chinsali

    Heute, 18 Oktober, Donnerstag

    Zeit Temperatur Niederschläge Wind Luftdruck Luftfeuchtigkeit
    00:00 +24°C° 0 mm 2 m/S 645 mmHg 38%
    01:00 +23°C° 0 mm 2 m/S 645 mmHg 41%
    02:00 +22°C° 0 mm 1 m/S 645 mmHg 44%
    03:00 +22°C° 0 mm 1 m/S 645 mmHg 46%
    04:00 +21°C° 0 mm 1 m/S 645 mmHg 48%
    05:00 +21°C° 0 mm 1 m/S 645 mmHg 51%
    06:00 +23°C° 0 mm 2 m/S 646 mmHg 48%
    07:00 +25°C° 0 mm 2 m/S 646 mmHg 44%
    08:00 +26°C° 0 mm 2 m/S 647 mmHg 41%
    09:00 +29°C° 0 mm 2 m/S 648 mmHg 35%
    10:00 +32°C° 0 mm 2 m/S 648 mmHg 29%
    11:00 +36°C° 0 mm 2 m/S 648 mmHg 23%
    12:00 +34°C° 0 mm 1 m/S 648 mmHg 23%
    13:00 +34°C° 0 mm 1 m/S 647 mmHg 23%
    14:00 +34°C° 0 mm 1 m/S 646 mmHg 23%
    15:00 +33°C° 0 mm 1 m/S 646 mmHg 25%
    16:00 +32°C° 0 mm 1 m/S 645 mmHg 27%
    17:00 +31°C° 0 mm 1 m/S 645 mmHg 29%
    18:00 +29°C° 0 mm 1 m/S 645 mmHg 31%
    19:00 +28°C° 0 mm 1 m/S 645 mmHg 33%
    20:00 +27°C° 0 mm 1 m/S 645 mmHg 35%
    21:00 +27°C° 0 mm 1 m/S 645 mmHg 37%
    22:00 +26°C° 0 mm 2 m/S 645 mmHg 39%
    23:00 +26°C° 0 mm 2 m/S 646 mmHg 41%

    Morgen, 19 Oktober, Freitag

    Zeit Temperatur Niederschläge Wind Luftdruck Luftfeuchtigkeit
    00:00 +25°C° 0 mm 2 m/S 645 mmHg 43%
    01:00 +24°C° 0 mm 2 m/S 645 mmHg 46%
    02:00 +24°C° 0 mm 2 m/S 644 mmHg 49%
    03:00 +23°C° 0 mm 2 m/S 645 mmHg 50%
    04:00 +23°C° 0 mm 1 m/S 645 mmHg 52%
    05:00 +23°C° 0 mm 1 m/S 645 mmHg 53%
    06:00 +25°C° 0 mm 1 m/S 646 mmHg 50%
    07:00 +26°C° 0 mm 2 m/S 647 mmHg 46%
    08:00 +28°C° 0 mm 2 m/S 648 mmHg 43%
    09:00 +30°C° 0 mm 2 m/S 648 mmHg 36%
    10:00 +33°C° 0 mm 3 m/S 648 mmHg 29%
    11:00 +35°C° 0 mm 3 m/S 649 mmHg 23%
    12:00 +36°C° 0 mm 3 m/S 648 mmHg 22%
    13:00 +36°C° 0 mm 3 m/S 647 mmHg 21%
    14:00 +36°C° 0 mm 3 m/S 646 mmHg 20%
    15:00 +35°C° 0 mm 3 m/S 646 mmHg 22%
    16:00 +34°C° 0 mm 3 m/S 645 mmHg 24%
    17:00 +33°C° 0 mm 3 m/S 645 mmHg 25%
    18:00 +31°C° 0 mm 3 m/S 646 mmHg 28%
    19:00 +30°C° 0 mm 4 m/S 646 mmHg 30%
    20:00 +29°C° 0 mm 4 m/S 647 mmHg 33%
    21:00 +28°C° 0 mm 4 m/S 647 mmHg 37%
    22:00 +27°C° 0 mm 3 m/S 647 mmHg 42%
    23:00 +25°C° 0 mm 3 m/S 647 mmHg 46%

    übermorgen, 20 Oktober, Samstag

    Zeit Temperatur Niederschläge Wind Luftdruck Luftfeuchtigkeit
    00:00 +25°C° 0 mm 3 m/S 646 mmHg 49%
    01:00 +24°C° 0 mm 3 m/S 646 mmHg 52%
    02:00 +22°C° 0 mm 3 m/S 645 mmHg 56%
    03:00 +23°C° 0 mm 2 m/S 645 mmHg 58%
    04:00 +21°C° 0 mm 2 m/S 645 mmHg 60%
    05:00 +21°C° 0 mm 2 m/S 645 mmHg 62%
    06:00 +24°C° 0 mm 3 m/S 646 mmHg 56%
    07:00 +26°C° 0 mm 3 m/S 647 mmHg 50%
    08:00 +28°C° 0 mm 3 m/S 649 mmHg 44%
    09:00 +30°C° 0 mm 3 m/S 649 mmHg 37%
    10:00 +33°C° 0 mm 3 m/S 649 mmHg 31%
    11:00 +35°C° 0 mm 3 m/S 649 mmHg 24%
    12:00 +35°C° 0 mm 3 m/S 648 mmHg 24%
    13:00 +35°C° 0 mm 3 m/S 647 mmHg 23%
    14:00 +34°C° 0 mm 3 m/S 646 mmHg 22%
    15:00 +34°C° 0 mm 3 m/S 646 mmHg 24%
    16:00 +33°C° 0 mm 3 m/S 646 mmHg 25%
    17:00 +31°C° 0 mm 3 m/S 646 mmHg 26%
    18:00 +30°C° 0 mm 3 m/S 646 mmHg 29%
    19:00 +29°C° 0 mm 3 m/S 647 mmHg 31%
    20:00 +28°C° 0 mm 3 m/S 647 mmHg 34%
    21:00 +27°C° 0 mm 3 m/S 647 mmHg 37%
    22:00 +26°C° 0 mm 3 m/S 647 mmHg 41%
    23:00 +26°C° 0 mm 3 m/S 647 mmHg 45%

    21 Oktober, Sonntag

    Zeit Temperatur Niederschläge Wind Luftdruck Luftfeuchtigkeit
    00:00 +25°C° 0 mm 3 m/S 647 mmHg 49%
    01:00 +24°C° 0 mm 3 m/S 646 mmHg 53%
    02:00 +22°C° 0 mm 3 m/S 646 mmHg 57%
    03:00 +22°C° 0 mm 3 m/S 646 mmHg 59%
    04:00 +21°C° 0 mm 3 m/S 646 mmHg 61%
    05:00 +21°C° 0 mm 3 m/S 646 mmHg 62%
    06:00 +24°C° 0 mm 3 m/S 647 mmHg 57%
    07:00 +25°C° 0 mm 4 m/S 648 mmHg 51%
    08:00 +27°C° 0 mm 4 m/S 649 mmHg 45%
    09:00 +29°C° 0 mm 4 m/S 649 mmHg 40%
    10:00 +30°C° 0 mm 5 m/S 649 mmHg 35%
    11:00 +33°C° 0 mm 5 m/S 650 mmHg 30%
    12:00 +32°C° 0 mm 5 m/S 649 mmHg 31%
    13:00 +32°C° 0 mm 5 m/S 647 mmHg 33%
    14:00 +30°C° 0 mm 5 m/S 646 mmHg 35%
    15:00 +30°C° 0 mm 5 m/S 647 mmHg 35%
    16:00 +29°C° 0 mm 5 m/S 647 mmHg 36%
    17:00 +29°C° 0 mm 4 m/S 647 mmHg 37%
    18:00 +28°C° 0.4 mm 4 m/S 647 mmHg 42%
    19:00 +26°C° 0.4 mm 4 m/S 648 mmHg 48%
    20:00 +25°C° 0.4 mm 3 m/S 648 mmHg 54%
    21:00 +23°C° 0 mm 4 m/S 648 mmHg 56%
    22:00 +22°C° 0 mm 4 m/S 648 mmHg 58%
    23:00 +21°C° 0 mm 5 m/S 648 mmHg 60%

    22 Oktober, Montag

    Zeit Temperatur Niederschläge Wind Luftdruck Luftfeuchtigkeit
    00:00 +21°C° 0 mm 5 m/S 647 mmHg 65%
    01:00 +20°C° 0 mm 5 m/S 647 mmHg 69%
    02:00 +19°C° 0 mm 5 m/S 646 mmHg 74%
    03:00 +19°C° 0 mm 5 m/S 647 mmHg 75%
    04:00 +19°C° 0 mm 4 m/S 647 mmHg 75%
    05:00 +18°C° 0 mm 4 m/S 647 mmHg 76%
    06:00 +20°C° 0 mm 5 m/S 648 mmHg 70%
    07:00 +21°C° 0 mm 5 m/S 649 mmHg 65%
    08:00 +22°C° 0 mm 5 m/S 650 mmHg 59%
    09:00 +23°C° 0 mm 5 m/S 649 mmHg 55%
    10:00 +25°C° 0 mm 5 m/S 649 mmHg 51%
    11:00 +26°C° 0 mm 5 m/S 649 mmHg 47%
    12:00 +27°C° 0 mm 5 m/S 648 mmHg 43%
    13:00 +28°C° 0 mm 5 m/S 648 mmHg 39%
    14:00 +30°C° 0 mm 5 m/S 648 mmHg 35%
    15:00 +29°C° 0 mm 5 m/S 647 mmHg 37%
    16:00 +28°C° 0 mm 5 m/S 647 mmHg 39%
    17:00 +27°C° 0 mm 5 m/S 647 mmHg 41%
    18:00 +26°C° 0 mm 4 m/S 647 mmHg 45%
    19:00 +25°C° 0 mm 4 m/S 648 mmHg 50%
    20:00 +22°C° 0 mm 4 m/S 648 mmHg 54%
    21:00 +21°C° 0 mm 4 m/S 648 mmHg 58%
    22:00 +20°C° 0 mm 4 m/S 648 mmHg 61%
    23:00 +20°C° 0 mm 5 m/S 648 mmHg 65%

    23 Oktober, Dienstag

    Zeit Temperatur Niederschläge Wind Luftdruck Luftfeuchtigkeit
    00:00 +19°C° 0 mm 5 m/S 647 mmHg 68%
    01:00 +18°C° 0 mm 4 m/S 647 mmHg 71%
    02:00 +18°C° 0 mm 4 m/S 646 mmHg 73%
    03:00 +18°C° 0 mm 4 m/S 647 mmHg 75%
    04:00 +17°C° 0 mm 4 m/S 647 mmHg 77%
    05:00 +17°C° 0 mm 4 m/S 647 mmHg 79%
    06:00 +18°C° 0 mm 4 m/S 648 mmHg 72%
    07:00 +20°C° 0 mm 4 m/S 649 mmHg 66%
    08:00 +21°C° 0 mm 4 m/S 649 mmHg 60%
    09:00 +25°C° 0 mm 4 m/S 649 mmHg 51%
    10:00 +27°C° 0 mm 4 m/S 649 mmHg 43%
    11:00 +30°C° 0 mm 4 m/S 650 mmHg 34%
    12:00 +32°C° 0 mm 4 m/S 649 mmHg 31%
    13:00 +33°C° 0 mm 4 m/S 648 mmHg 28%
    14:00 +34°C° 0 mm 4 m/S 648 mmHg 25%
    15:00 +33°C° 0 mm 4 m/S 647 mmHg 25%
    16:00 +32°C° 0 mm 4 m/S 647 mmHg 26%
    17:00 +30°C° 0 mm 3 m/S 647 mmHg 27%
    18:00 +29°C° 0 mm 4 m/S 647 mmHg 30%
    19:00 +28°C° 0 mm 4 m/S 648 mmHg 32%
    20:00 +26°C° 0 mm 4 m/S 648 mmHg 35%
    21:00 +25°C° 0 mm 4 m/S 648 mmHg 40%
    22:00 +23°C° 0 mm 4 m/S 648 mmHg 45%
    23:00 +22°C° 0 mm 3 m/S 648 mmHg 49%
    Mehr zeigen